This demonstration page uses our WeatherBlox Daily Observations layout. Learn more.

38.89511, -77.03637

Hourly Observations for April 29, 2015

Temp ( °F °C ) Dew Point ( °F °C ) Humidity (%) Winds ( mph kmh ) Pressure ( in mb ) Visibility ( mi km ) Precip ( " mm )
12:52 am 00:52 Mostly Clear 63 17 37 3 39 39 WNW 7 11 29.83 1010 10 16.09344 0 0
1:52 am 01:52 Mostly Clear 57 14 43 6 59 59 Calm 29.83 1010 10 16.09344 0 0
2:52 am 02:52 Mostly Clear 57 14 43 6 59 59 Calm 29.83 1010 10 16.09344 0 0
3:52 am 03:52 Mostly Clear 55 13 39 4 55 55 Calm 29.83 1010 10 16.09344 0 0
4:52 am 04:52 Mostly Clear 54 12 43 6 67 67 Calm 29.83 1010 10 16.09344 0 0
5:52 am 05:52 Mostly Clear 55 13 43 6 63 63 Calm 29.83 1010 10 16.09344 0 0
6:52 am 06:52 Mostly Sunny 54 12 43 6 67 67 NNE 5 7 29.83 1010 10 16.09344 0 0
7:52 am 07:52 Mostly Sunny 59 15 43 6 55 55 N 5 7 29.83 1010 10 16.09344 0 0
8:52 am 08:52 Mostly Sunny 63 17 43 6 49 49 N 7 11 29.83 1010 10 16.09344 0 0
9:52 am 09:52 Mostly Sunny 66 19 43 6 43 43 N 6 9 29.83 1010 10 16.09344 0 0
10:52 am 10:52 Partly Cloudy 70 21 43 6 38 38 E 3 6 29.8 1009 10 16.09344 0 0
11:52 am 11:52 Partly Cloudy 72 22 43 6 36 36 E 5 7 29.8 1009 10 16.09344 0 0
12:52 pm 12:52 Partly Cloudy 72 22 45 7 38 38 SSE 6 9 29.77 1008 10 16.09344 0 0
1:52 pm 13:52 Partly Cloudy 73 23 45 7 36 36 SSE 3 6 29.74 1007 10 16.09344 0 0
2:52 pm 14:52 Partly Cloudy 73 23 45 7 36 36 SSE 5 7 29.71 1006 10 16.09344 0 0
3:52 pm 15:52 Partly Cloudy 75 24 41 5 29 29 Calm 29.71 1006 10 16.09344 0 0
4:52 pm 16:52 Mostly Cloudy 72 22 45 7 38 38 S 6 9 29.68 1005 10 16.09344 0 0
5:52 pm 17:52 Mostly Cloudy 75 24 43 6 31 31 ESE 3 6 29.68 1005 10 16.09344 0 0
6:52 pm 18:52 Mostly Cloudy 73 23 39 4 29 29 NW 8 13 29.68 1005 10 16.09344 0 0
7:52 pm 19:52 Mostly Cloudy 72 22 41 5 33 33 N 3 6 29.68 1005 10 16.09344 0 0
8:52 pm 20:52 Mostly Cloudy 66 19 45 7 46 46 SSE 5 7 29.68 1005 10 16.09344 0 0
9:52 pm 21:52 Mostly Cloudy 64 18 48 9 56 56 S 9 15 29.71 1006 10 16.09344 0 0
10:52 pm 22:52 Mostly Cloudy 63 17 48 9 59 59 S 7 11 29.71 1006 10 16.09344 0 0
11:52 pm 23:52 Mostly Cloudy 61 16 46 8 59 59 S 7 11 29.71 1006 10 16.09344 0 0

Powered by AerisWeather